[[{"header":{"parameterUnit":"m.s-1","parameterCategory":2,"la1":30.2991,"la2":30.254,"lo1":-89.0895,"lo2":-89.0444,"dy":0.0017,"dx":0.0017,"nx":28,"ny":28,"refTime":"2024-07-01T03:00:00:Z","depth":"0","parameterNumber":2,"parameterNumberName":"U-component_of_CURRENTS"},"data":[0,0,0,0,0,0,0,0,0,0,0,0,0,0,0,0,0,0,0,0,0,0,0,0,0,0,0,0,0,0,0,0,0,0,0,0,0,0,0,0,0,0,0,0,0,0,0,0,0,0,0,0,0,0,0,0,0,0,0.4207,0.4206,0,0.4081,0.408,0.4078,0.4078,0.408,0.4082,0.4083,0.4035,0.4032,0.403,0,0,0,0,0,0,0,0,0,0,0,0,0,0.4347,0.4345,0.4207,0.4206,0.4204,0.4081,0.408,0.4078,0.4078,0.408,0.4082,0.4084,0.4036,0.4033,0.4029,0,0,0,0,0,0,0,0,0,0,0,0,0,0.4261,0.4345,0.4208,0.4189,0.4186,0.4082,0.4079,0.4077,0.4078,0.408,0.4083,0.4085,0.4037,0.4033,0.4029,0.3954,0,0,0.4016,0.4014,0,0,0,0,0,0,0,0,0.4266,0.4256,0.4194,0.419,0.4187,0.4098,0.4111,0.404,0.4077,0.4119,0.4083,0.4086,0.4061,0.4055,0.4025,0.3952,0.395,0.4016,0.4013,0.4011,0.401,0,0,0,0,0,0,0,0.4272,0.426,0.4158,0.4192,0.4188,0.4153,0.4144,0.4097,0.408,0.4116,0.4115,0.41,0.4061,0.4029,0.4025,0.3949,0.4016,0.4012,0.401,0.4008,0.392,0.392,0,0,0,0,0,0,0.4289,0.4266,0.4162,0.4154,0.4233,0.4149,0.4139,0.4124,0.4079,0.4073,0.4098,0.4101,0.4035,0.4029,0.4023,0.3972,0.4012,0.4008,0.4005,0.392,0.392,0.392,0,0,0,0,0,0,0.4292,0.4281,0.4167,0.4207,0.419,0.4144,0.4127,0.412,0.4091,0.4064,0.4061,0.4078,0.4037,0.4029,0.3988,0.397,0.4006,0.4002,0.392,0.392,0.392,0.3846,0,0,0,0,0,0,0.4297,0.4283,0.4271,0.4208,0.4189,0.4096,0.4125,0.4116,0.4078,0.408,0.4045,0.4043,0.4038,0.3994,0.3983,0.3965,0.3999,0.3919,0.392,0.392,0.3848,0.3843,0.3839,0,0,0,0,0,0.4302,0.4264,0.4271,0.4258,0.4177,0.4094,0.408,0.4056,0.4075,0.4043,0.4037,0.4044,0.3991,0.3988,0.3977,0.3957,0.3919,0.392,0.392,0.385,0.3844,0.384,0,0,0,0,0,0,0.4323,0.4259,0.4266,0.4214,0.4162,0.4095,0.4049,0.4047,0.4011,0.4017,0.4015,0.401,0.3983,0.3978,0.3977,0.3942,0.3967,0.3965,0.3918,0.3913,0.3909,0.3909,0.3995,0,0,0,0,0,0.4322,0.4274,0.4222,0.4179,0.4146,0.4101,0.4064,0.405,0.4011,0.3998,0.3978,0.3973,0.397,0.3948,0.394,0.3883,0.3923,0.3878,0.3874,0.387,0.3867,0.3942,0.3944,0.3922,0.3922,0.3922,0,0,0.4317,0.4276,0.425,0.4179,0.413,0.4057,0.4083,0.4014,0.3974,0.3996,0.3931,0.3949,0.3957,0.392,0.3907,0.391,0.389,0.387,0.3866,0.3866,0.3942,0.3944,0.3946,0.3922,0.3922,0.3922,0,0,0.4243,0.4243,0.4159,0.4115,0.404,0.4017,0.4,0.3932,0.3923,0.3863,0.39,0.3907,0.3855,0.3872,0.3876,0.3838,0.3877,0.3844,0.3796,0.3868,0.387,0.3873,0.3893,0.3898,0.3827,0.3827,0.3827,0,0.4237,0.4145,0.4123,0.4033,0.3997,0.3998,0.3916,0.3891,0.3829,0.3827,0.3838,0.3832,0.3837,0.3831,0.3829,0.3826,0.3863,0.3806,0.3861,0.3865,0.3869,0.389,0.3896,0.3824,0.3824,0.3824,0.3825,0,0.4089,0.4032,0.3976,0.388,0.384,0.3772,0.3748,0.3723,0.3729,0.3722,0.3721,0.3738,0.375,0.3756,0.377,0.38,0.3814,0.3857,0.3869,0.3866,0.3888,0.3896,0.3819,0.382,0.3821,0.3822,0,0,0.4022,0.3899,0.3881,0.3832,0.3767,0.3715,0.3669,0.3632,0.362,0.3606,0.3598,0.3612,0.3662,0.3674,0.3712,0.3758,0.3806,0.3808,0.3814,0.3817,0.3934,0.3779,0.3774,0.3867,0.3869,0.3871,0.3925,0,0.3911,0.3753,0.3724,0.3603,0.3525,0.3548,0.3511,0.3498,0.351,0.3506,0.3566,0.3576,0.362,0.3642,0.3695,0.3793,0.3831,0.3785,0.3946,0.3949,0.3805,0.3779,0.3538,0.3553,0.3934,0.3935,0.3936,0,0.3744,0.3682,0.3545,0.3487,0.3457,0.3407,0.3395,0.3364,0.3393,0.3411,0.3453,0.3508,0.3569,0.3623,0.3767,0.3739,0.3829,0.3897,0.3902,0.3791,0.381,0.3626,0.3554,0.3418,0.395,0.3948,0.3948,0,0.3668,0.3547,0.3456,0.3427,0.3361,0.3338,0.3329,0.3337,0.3327,0.3371,0.3379,0.3467,0.3516,0.3649,0.3775,0.3792,0.3929,0.3979,0.3914,0.3904,0.3744,0.3714,0.3548,0.409,0.409,0.4089,0.4089,0,0.3537,0.3454,0.3421,0.3363,0.33,0.3284,0.3235,0.3246,0.3267,0.3257,0.3341,0.3358,0.3536,0.3627,0.3758,0.3828,0.3924,0.3888,0.3907,0.3704,0.3672,0.3585,0.3568,0.4091,0.4091,0.4091,0.409,0,0.341,0.3381,0.3282,0.3249,0.324,0.3198,0.3177,0.3156,0.3187,0.3183,0.3201,0.3293,0.3404,0.3543,0.3743,0.3774,0.3747,0.3896,0.3605,0.3586,0.3353,0.3342,0.3156,0.31,0.3814,0.3811,0.3808,0,0.3305,0.3243,0.3211,0.3189,0.3166,0.3123,0.31,0.3115,0.3104,0.3138,0.3137,0.3225,0.3275,0.3443,0.3518,0.3646,0.362,0.3476,0.3458,0.3268,0.3275,0.3203,0.3168,0.322,0.3213,0.3207,0.3202,0,0.3155,0.3164,0.3128,0.3091,0.3061,0.3019,0.2997,0.2976,0.2999,0.2995,0.3011,0.3053,0.3148,0.3126,0.3231,0.3304,0.3224,0.3349,0.3252,0.2849,0.2666,0.2643,0.3239,0.3147,0.3152,0.3156,0.3159,0.3161,0.3085,0.3046,0.3034,0.2988,0.2962,0.2921,0.2858,0.2852,0.2816,0.2767,0.2868,0.282,0.2782,0.2879,0.2925,0.273,0.2882,0.2638,0.266,0.2619,0.2472,0.2898,0.2766,0.2769,0.2772,0.2774,0.2777,0,0.2986,0.2968,0.293,0.2875,0.2817,0.2835,0.2782,0.2701,0.2626,0.2596,0.2577,0.2411,0.2318,0.23,0.213,0.2035,0.2035,0.1979,0.1836,0.1865,0.2311,0.2188,0.1799,0.1799,0.1799,0.1799,0.1799,0.18,0.2945,0.2884,0.286,0.2748,0.271,0.2584,0.254,0.2438,0.2371,0.2161,0.2,0.1972,0.1866,0.164,0.1458,0.1458,0.1417,0.128,0.143,0.1726,0.1789,0.185,0.1726,0.1247,0.1246,0.0858,0.0855,0.0853]},{"header":{"parameterUnit":"m.s-1","parameterCategory":2,"la1":30.2991,"la2":30.254,"lo1":-89.0895,"lo2":-89.0444,"dy":0.0017,"dx":0.0017,"nx":28,"ny":28,"refTime":"2024-07-01T03:00:00:Z","depth":"0","parameterNumber":3,"parameterNumberName":"V-component_of_CURRENTS"},"data":[0,0,0,0,0,0,0,0,0,0,0,0,0,0,0,0,0,0,0,0,0,0,0,0,0,0,0,0,0,0,0,0,0,0,0,0,0,0,0,0,0,0,0,0,0,0,0,0,0,0,0,0,0,0,0,0,0,0,0.0427,0.0429,0,0.0611,0.0613,0.0615,0.0687,0.0687,0.0686,0.0685,0.0839,0.0844,0.0848,0,0,0,0,0,0,0,0,0,0,0,0,0,0.0079,0.0086,0.0427,0.0429,0.0431,0.061,0.0613,0.0616,0.0687,0.0686,0.0686,0.0685,0.0838,0.0843,0.0849,0,0,0,0,0,0,0,0,0,0,0,0,0,0.0244,0.0088,0.0427,0.0488,0.0495,0.061,0.0613,0.0616,0.0687,0.0686,0.0686,0.0685,0.0836,0.0843,0.085,0.091,0,0,0.0871,0.0874,0,0,0,0,0,0,0,0,0.0235,0.0257,0.0477,0.0484,0.0492,0.0624,0.0547,0.0713,0.0688,0.0616,0.0685,0.0684,0.0765,0.0777,0.0816,0.0917,0.0924,0.0871,0.0876,0.0879,0.0881,0,0,0,0,0,0,0,0.0223,0.0249,0.0501,0.0479,0.0489,0.0486,0.0509,0.0578,0.0693,0.0622,0.0627,0.0646,0.0769,0.0809,0.082,0.0926,0.0871,0.0877,0.0882,0.0884,0.1065,0.1065,0,0,0,0,0,0,0.0204,0.024,0.0495,0.0506,0.0358,0.0493,0.0519,0.0584,0.0693,0.0709,0.0647,0.0649,0.0797,0.0812,0.0825,0.0916,0.0879,0.0885,0.0889,0.1064,0.1065,0.1065,0,0,0,0,0,0,0.0197,0.0227,0.0488,0.0372,0.0405,0.05,0.0572,0.0588,0.0628,0.0712,0.0727,0.067,0.0797,0.0816,0.0905,0.0921,0.0888,0.0895,0.1063,0.1064,0.1065,0.1088,0,0,0,0,0,0,0.0187,0.0225,0.0257,0.0373,0.0411,0.0564,0.0573,0.0592,0.0641,0.0645,0.0738,0.0751,0.0798,0.0894,0.0912,0.093,0.09,0.1063,0.1064,0.1065,0.1086,0.109,0.1092,0,0,0,0,0,0.0175,0.0236,0.0259,0.0288,0.0457,0.0565,0.0585,0.0647,0.0642,0.0676,0.0739,0.0748,0.0912,0.0902,0.0922,0.0943,0.1062,0.1063,0.1065,0.1085,0.1089,0.1092,0,0,0,0,0,0,0.0105,0.0252,0.0279,0.0383,0.0463,0.0576,0.0613,0.0645,0.0722,0.072,0.0784,0.0804,0.0883,0.0908,0.0895,0.0992,0.0978,0.0983,0.0986,0.099,0.0993,0.098,0.0906,0,0,0,0,0,0.0103,0.0189,0.0307,0.0385,0.0425,0.0512,0.0557,0.0602,0.0685,0.0717,0.0785,0.0843,0.0906,0.0943,0.1006,0.1076,0.1062,0.1091,0.1093,0.1096,0.1096,0.1091,0.1093,0.107,0.107,0.107,0,0,0.0091,0.0186,0.023,0.0374,0.044,0.0523,0.0539,0.0616,0.068,0.0722,0.0824,0.0866,0.0927,0.1007,0.104,0.1031,0.1093,0.1098,0.11,0.1099,0.1092,0.1094,0.1096,0.1071,0.1071,0.1071,0,0,0.0114,0.02,0.0271,0.0349,0.0454,0.0521,0.0539,0.0654,0.0698,0.08,0.0833,0.0884,0.0998,0.1041,0.1075,0.1127,0.1111,0.1134,0.1145,0.114,0.1142,0.1143,0.1118,0.1117,0.1133,0.1133,0.1133,0,0.0091,0.0216,0.03,0.0387,0.0453,0.0519,0.0597,0.0663,0.0789,0.0824,0.0831,0.0967,0.1014,0.1092,0.111,0.1135,0.1119,0.1132,0.1143,0.1144,0.1145,0.112,0.1118,0.1134,0.1134,0.1134,0.1134,0,0.0169,0.0264,0.0312,0.0455,0.0527,0.0609,0.0707,0.0769,0.0816,0.0875,0.0957,0.1022,0.1089,0.1107,0.1136,0.1167,0.1148,0.1149,0.1133,0.1149,0.1121,0.1119,0.1136,0.1135,0.1135,0.1135,0,0,0.0164,0.0333,0.0353,0.042,0.0572,0.0644,0.0739,0.0848,0.0892,0.0977,0.1036,0.1126,0.1125,0.116,0.1182,0.1182,0.1175,0.1168,0.1167,0.1139,0.1145,0.1109,0.1103,0.1174,0.1175,0.1175,0.1119,0,0.0207,0.0351,0.0435,0.0569,0.0656,0.0741,0.0824,0.0914,0.098,0.1051,0.1085,0.1151,0.1156,0.1175,0.1179,0.1193,0.1172,0.1189,0.1136,0.1134,0.1099,0.1101,0.109,0.1038,0.1116,0.1116,0.1116,0,0.0275,0.0369,0.049,0.0636,0.0677,0.0752,0.0876,0.0958,0.105,0.109,0.1138,0.1169,0.1209,0.1189,0.1195,0.1204,0.1169,0.1158,0.1155,0.1113,0.1096,0.1037,0.1031,0.0997,0.1112,0.1113,0.1113,0,0.0251,0.0418,0.0506,0.0566,0.0728,0.0777,0.0853,0.0959,0.102,0.1099,0.1133,0.1183,0.1209,0.1188,0.1184,0.1182,0.1165,0.1157,0.1082,0.1078,0.1054,0.1048,0.1007,0.112,0.112,0.112,0.112,0,0.03,0.0381,0.0492,0.0555,0.0646,0.0755,0.0841,0.0918,0.1007,0.1074,0.1132,0.1183,0.1207,0.1215,0.1184,0.1136,0.1159,0.1079,0.1064,0.106,0.1056,0.1014,0.1019,0.1118,0.1118,0.1119,0.1119,0,0.0293,0.0367,0.0478,0.061,0.0645,0.0708,0.0834,0.0891,0.0972,0.1054,0.1077,0.118,0.1203,0.1204,0.1184,0.1135,0.1077,0.1054,0.1042,0.1026,0.0916,0.0924,0.0876,0.0908,0.0956,0.0955,0.0954,0,0.0316,0.0364,0.0486,0.0529,0.0592,0.0684,0.0744,0.0857,0.0919,0.1056,0.1091,0.1153,0.1217,0.1184,0.1123,0.1051,0.104,0.0953,0.0946,0.0904,0.0901,0.091,0.0944,0.0918,0.0916,0.0915,0.0915,0,0.0352,0.0372,0.0448,0.0517,0.0582,0.0667,0.0758,0.0806,0.0936,0.1012,0.1124,0.1187,0.1189,0.1159,0.1064,0.1005,0.0956,0.0927,0.0897,0.0876,0.0872,0.0899,0.0949,0.0906,0.0907,0.0907,0.0908,0.0908,0.0359,0.039,0.0451,0.052,0.0584,0.0655,0.0714,0.081,0.0914,0.1051,0.1123,0.1224,0.1176,0.1077,0.1004,0.0837,0.0889,0.0774,0.0786,0.0798,0.0834,0.0853,0.0788,0.0788,0.0788,0.0788,0.0788,0,0.0368,0.0392,0.0452,0.0532,0.0584,0.0627,0.0729,0.0791,0.0902,0.1043,0.1151,0.1174,0.11,0.1003,0.0794,0.0707,0.0727,0.0668,0.0689,0.0734,0.0747,0.075,0.0659,0.0659,0.0659,0.0659,0.0659,0.0659,0.0377,0.0407,0.0431,0.0511,0.0563,0.063,0.0685,0.078,0.0889,0.1016,0.1085,0.1159,0.1086,0.0807,0.0634,0.0608,0.0633,0.0594,0.0638,0.0637,0.0649,0.0659,0.0661,0.0553,0.0553,0.0638,0.0638,0.0639]}],[{"header":{"parameterUnit":"m.s-1","parameterCategory":2,"la1":30.2991,"la2":30.254,"lo1":-89.0895,"lo2":-89.0444,"dy":0.0017,"dx":0.0017,"nx":28,"ny":28,"refTime":"2024-07-01T03:00:00:Z","depth":"2","parameterNumber":2,"parameterNumberName":"U-component_of_CURRENTS"},"data":[0,0,0,0,0,0,0,0,0,0,0,0,0,0,0,0,0,0,0,0,0,0,0,0,0,0,0,0,0,0,0,0,0,0,0,0,0,0,0,0,0,0,0,0,0,0,0,0,0,0,0,0,0,0,0,0,0,0,0.2716,0.2717,0,0.2794,0.2795,0.2796,0.2825,0.2824,0.2824,0.2824,0.3026,0.3032,0.3037,0,0,0,0,0,0,0,0,0,0,0,0,0,0.2515,0.2519,0.2716,0.2717,0.2718,0.2794,0.2795,0.2796,0.2825,0.2824,0.2824,0.2824,0.3024,0.3031,0.3038,0,0,0,0,0,0,0,0,0,0,0,0,0,0.2598,0.252,0.2716,0.2741,0.2745,0.2794,0.2795,0.2796,0.2825,0.2824,0.2824,0.2824,0.3022,0.303,0.3039,0.3098,0,0,0.3064,0.3068,0,0,0,0,0,0,0,0,0.2594,0.2606,0.2737,0.274,0.2743,0.28,0.2798,0.2904,0.2825,0.2794,0.2824,0.2823,0.2963,0.2976,0.2989,0.3107,0.3116,0.3065,0.307,0.3074,0.3076,0,0,0,0,0,0,0,0.2588,0.2602,0.2747,0.2738,0.2742,0.2723,0.2735,0.2818,0.2881,0.2797,0.2799,0.2808,0.2965,0.2981,0.2994,0.3119,0.3065,0.3072,0.3078,0.3081,0.3291,0.3292,0,0,0,0,0,0,0.2584,0.2598,0.2744,0.2749,0.2666,0.2727,0.2741,0.2782,0.2878,0.2891,0.2808,0.2809,0.2967,0.2985,0.3002,0.3082,0.3074,0.3082,0.3087,0.3291,0.3292,0.3292,0,0,0,0,0,0,0.258,0.2598,0.2741,0.2673,0.269,0.2732,0.2777,0.2783,0.2839,0.2886,0.2901,0.2861,0.2967,0.299,0.3104,0.309,0.3086,0.3093,0.329,0.3291,0.3292,0.3241,0,0,0,0,0,0,0.2575,0.2597,0.2651,0.2674,0.2694,0.2799,0.2777,0.2785,0.2843,0.2846,0.2936,0.2951,0.2968,0.3091,0.3113,0.3102,0.31,0.329,0.3291,0.3292,0.3242,0.324,0.3238,0,0,0,0,0,0.2568,0.2646,0.2654,0.2672,0.2759,0.2802,0.2811,0.2836,0.2846,0.2884,0.2939,0.2951,0.311,0.3101,0.3125,0.3116,0.3289,0.329,0.3292,0.3242,0.324,0.3238,0,0,0,0,0,0,0.2584,0.2657,0.2665,0.2762,0.2788,0.2807,0.2864,0.2867,0.294,0.2961,0.2995,0.3016,0.3096,0.3133,0.312,0.3177,0.3188,0.3194,0.3142,0.3141,0.3139,0.3116,0.3107,0,0,0,0,0,0.2612,0.2698,0.2728,0.2806,0.2833,0.2854,0.2886,0.2895,0.2945,0.2976,0.3023,0.3074,0.3114,0.3153,0.3205,0.3272,0.3283,0.3271,0.3269,0.3267,0.3264,0.3265,0.3262,0.3296,0.3296,0.3296,0,0,0.2631,0.269,0.2732,0.2816,0.285,0.2856,0.2876,0.2939,0.2924,0.2993,0.3036,0.3095,0.3136,0.3181,0.3217,0.3215,0.3266,0.3268,0.3266,0.3265,0.3266,0.3262,0.3259,0.3297,0.3297,0.3297,0,0,0.2681,0.2776,0.2838,0.2861,0.292,0.2918,0.2943,0.2979,0.2994,0.3049,0.3064,0.3128,0.3208,0.3208,0.322,0.3255,0.3263,0.3264,0.3232,0.3232,0.3229,0.3226,0.3241,0.324,0.3252,0.3252,0.3252,0,0.2695,0.277,0.2857,0.2892,0.2895,0.2941,0.294,0.296,0.3014,0.3026,0.3064,0.3147,0.3203,0.3206,0.3206,0.3247,0.3255,0.3232,0.3227,0.3224,0.3222,0.3238,0.3238,0.325,0.325,0.325,0.3251,0,0.2748,0.2799,0.2844,0.2885,0.2905,0.2934,0.2937,0.2971,0.2999,0.2999,0.3055,0.3128,0.3167,0.3181,0.3212,0.3207,0.3222,0.3228,0.3224,0.3215,0.3234,0.3234,0.3247,0.3247,0.3248,0.3249,0,0,0.277,0.2858,0.2866,0.2854,0.2898,0.2902,0.2909,0.2908,0.2898,0.2969,0.2955,0.3039,0.3092,0.3111,0.315,0.3155,0.3162,0.3185,0.3186,0.3186,0.3171,0.2963,0.2944,0.316,0.316,0.3159,0.3192,0,0.2764,0.2802,0.2846,0.2822,0.2822,0.2849,0.283,0.2839,0.287,0.2877,0.2946,0.2981,0.3052,0.3088,0.3101,0.3156,0.3159,0.3153,0.3194,0.3196,0.2998,0.2935,0.2714,0.2704,0.3192,0.3192,0.3192,0,0.2766,0.2791,0.2784,0.2762,0.2766,0.2754,0.2734,0.2728,0.2755,0.2792,0.2848,0.2904,0.2958,0.3009,0.3085,0.3078,0.3123,0.3157,0.3159,0.2978,0.2984,0.2794,0.2686,0.3193,0.3193,0.3193,0.3193,0,0.2698,0.2722,0.271,0.2707,0.2706,0.2706,0.2704,0.2718,0.2704,0.2759,0.2768,0.2842,0.2887,0.2954,0.3058,0.3074,0.3114,0.3142,0.2993,0.2982,0.2806,0.2776,0.3164,0.3164,0.3164,0.3164,0.3164,0,0.2647,0.2629,0.2686,0.2672,0.263,0.266,0.2623,0.2644,0.2659,0.2629,0.2735,0.2731,0.2874,0.2918,0.3014,0.2988,0.3087,0.2962,0.2952,0.2781,0.275,0.319,0.3192,0.3165,0.3165,0.3165,0.3164,0,0.2557,0.2605,0.2577,0.2597,0.2602,0.2575,0.2569,0.2535,0.2589,0.2555,0.2578,0.2653,0.2718,0.2826,0.293,0.2897,0.2927,0.2898,0.2688,0.2647,0.2815,0.2815,0.2714,0.2706,0.2699,0.2694,0.269,0,0.2513,0.2502,0.2518,0.2497,0.2512,0.2493,0.2466,0.2504,0.2471,0.2496,0.246,0.2524,0.2513,0.2563,0.2555,0.2599,0.2791,0.239,0.2345,0.2754,0.2758,0.2769,0.2778,0.2134,0.2126,0.2119,0.2113,0,0.2404,0.243,0.2409,0.2387,0.2368,0.2322,0.2306,0.227,0.2299,0.2279,0.2265,0.2264,0.2254,0.215,0.2149,0.2167,0.2355,0.2234,0.2719,0.2243,0.2198,0.2206,0.2236,0.2049,0.2056,0.206,0.2064,0.2066,0.232,0.2281,0.2279,0.2231,0.2215,0.2162,0.2105,0.2083,0.2028,0.1941,0.2016,0.1927,0.19,0.1745,0.1726,0.1729,0.1891,0.185,0.1877,0.1911,0.1798,0.1739,0.1487,0.149,0.1492,0.1495,0.1497,0,0.2174,0.2162,0.2115,0.206,0.1995,0.2052,0.1984,0.1903,0.182,0.1712,0.1654,0.1431,0.1313,0.1385,0.1241,0.1189,0.1257,0.1194,0.1295,0.1354,0.1407,0.1276,0.0824,0.0822,0.0821,0.082,0,0,0.2099,0.2011,0.1981,0.1854,0.1845,0.1752,0.1717,0.1608,0.1516,0.1311,0.1195,0.1165,0.124,0.0988,0.0947,0.0875,0.1125,0.0842,0.1368,0.154,0.1593,0.1751,0.1606,0,0,0,0,0]},{"header":{"parameterUnit":"m.s-1","parameterCategory":2,"la1":30.2991,"la2":30.254,"lo1":-89.0895,"lo2":-89.0444,"dy":0.0017,"dx":0.0017,"nx":28,"ny":28,"refTime":"2024-07-01T03:00:00:Z","depth":"2","parameterNumber":3,"parameterNumberName":"V-component_of_CURRENTS"},"data":[0,0,0,0,0,0,0,0,0,0,0,0,0,0,0,0,0,0,0,0,0,0,0,0,0,0,0,0,0,0,0,0,0,0,0,0,0,0,0,0,0,0,0,0,0,0,0,0,0,0,0,0,0,0,0,0,0,0,-0.0338,-0.0338,0,-0.0264,-0.0263,-0.0262,-0.0209,-0.0209,-0.0209,-0.0209,-0.0016,-0.0011,-0.0006,0,0,0,0,0,0,0,0,0,0,0,0,0,-0.0431,-0.0429,-0.0338,-0.0338,-0.0337,-0.0264,-0.0263,-0.0261,-0.0209,-0.0209,-0.0209,-0.0209,-0.0018,-0.0012,-0.0005,0,0,0,0,0,0,0,0,0,0,0,0,0,-0.0372,-0.0428,-0.0338,-0.0306,-0.0303,-0.0265,-0.0263,-0.0261,-0.0209,-0.0209,-0.0209,-0.0209,-0.002,-0.0012,-0.0005,0.0044,0,0,0.0019,0.0022,0,0,0,0,0,0,0,0,-0.0376,-0.0368,-0.0311,-0.0308,-0.0305,-0.025,-0.0225,-0.0155,-0.0209,-0.024,-0.0209,-0.0209,-0.0086,-0.0073,-0.0054,0.0053,0.0061,0.002,0.0024,0.0028,0.003,0,0,0,0,0,0,0,-0.038,-0.0371,-0.0304,-0.0311,-0.0307,-0.0294,-0.0285,-0.0211,-0.0158,-0.0237,-0.0234,-0.0233,-0.0083,-0.0062,-0.0049,0.0064,0.002,0.0026,0.0031,0.0034,0.0236,0.0237,0,0,0,0,0,0,-0.0398,-0.0375,-0.0307,-0.0302,-0.0346,-0.0293,-0.0283,-0.0264,-0.0161,-0.0148,-0.0234,-0.0231,-0.0075,-0.0058,-0.0042,0.0069,0.0028,0.0035,0.0039,0.0236,0.0236,0.0237,0,0,0,0,0,0,-0.04,-0.0392,-0.031,-0.0342,-0.0331,-0.0292,-0.027,-0.0262,-0.0237,-0.0161,-0.0144,-0.0217,-0.0074,-0.0053,0.0071,0.0075,0.0038,0.0046,0.0235,0.0236,0.0237,0.0261,0,0,0,0,0,0,-0.0403,-0.0393,-0.0386,-0.0343,-0.033,-0.0282,-0.0271,-0.0261,-0.0239,-0.0235,-0.0141,-0.0123,-0.0073,0.0059,0.0078,0.0085,0.0052,0.0234,0.0235,0.0237,0.026,0.0263,0.0266,0,0,0,0,0,-0.0406,-0.0394,-0.0386,-0.0378,-0.0321,-0.0282,-0.0273,-0.0243,-0.0239,-0.0221,-0.0128,-0.0126,0.0078,0.0069,0.009,0.0099,0.0233,0.0235,0.0236,0.0258,0.0263,0.0266,0,0,0,0,0,0,-0.0421,-0.0386,-0.0377,-0.0352,-0.0321,-0.0275,-0.0261,-0.0243,-0.0162,-0.0148,-0.0076,-0.005,0.0048,0.0074,0.006,0.0155,0.0139,0.0145,0.0148,0.0153,0.0156,0.0147,0.0058,0,0,0,0,0,-0.0426,-0.0411,-0.0373,-0.0353,-0.0339,-0.0301,-0.0284,-0.0259,-0.019,-0.0157,-0.0078,-0.0005,0.0068,0.0114,0.0185,0.0261,0.0232,0.0265,0.0269,0.0271,0.0276,0.0204,0.02,0.0243,0.0243,0.0243,0,0,-0.0429,-0.0407,-0.04,-0.0357,-0.033,-0.029,-0.0288,-0.0256,-0.021,-0.0144,-0.0036,0.0025,0.0094,0.0183,0.0223,0.021,0.0252,0.0274,0.0276,0.0279,0.0205,0.02,0.0196,0.0244,0.0243,0.0243,0,0,-0.0424,-0.0404,-0.039,-0.0359,-0.0323,-0.0289,-0.0281,-0.0218,-0.018,-0.007,-0.0023,0.0047,0.0177,0.0217,0.0252,0.0311,0.0276,0.0318,0.0332,0.0261,0.0256,0.0252,0.024,0.0234,0.0313,0.0313,0.0313,0,-0.0426,-0.0393,-0.0379,-0.0348,-0.0316,-0.0287,-0.0246,-0.0202,-0.0098,-0.0055,-0.0031,0.0129,0.0185,0.0262,0.0292,0.0316,0.029,0.0316,0.0263,0.0257,0.0252,0.0241,0.0233,0.0315,0.0314,0.0314,0.0314,0,-0.0405,-0.0373,-0.0358,-0.0304,-0.027,-0.0229,-0.0172,-0.0114,-0.006,-0.0013,0.0087,0.0168,0.0256,0.0266,0.0317,0.0313,0.0314,0.0276,0.0247,0.0248,0.0238,0.023,0.0317,0.0316,0.0316,0.0315,0,0,-0.0405,-0.0353,-0.0344,-0.0309,-0.0238,-0.0202,-0.0125,-0.0047,-0.0,0.0085,0.014,0.0258,0.028,0.032,0.0354,0.0304,0.0264,0.0286,0.0282,0.0267,0.0147,0.0237,0.0237,0.0205,0.0203,0.0202,0.0166,0,-0.0381,-0.0326,-0.0298,-0.0222,-0.0179,-0.0123,-0.0055,0.0015,0.0081,0.0144,0.0183,0.0263,0.0301,0.0344,0.0305,0.0282,0.024,0.028,0.0155,0.0153,0.0223,0.0228,0.0184,0.0155,0.0158,0.0156,0.0155,0,-0.0355,-0.0318,-0.025,-0.017,-0.0147,-0.0089,0.0018,0.0079,0.0153,0.0205,0.0263,0.0294,0.032,0.0301,0.0252,0.0278,0.0225,0.0178,0.0173,0.0241,0.0227,0.0148,0.014,0.0141,0.0143,0.0144,0.0144,0,-0.035,-0.0276,-0.022,-0.0189,-0.0098,-0.0042,0.0018,0.0107,0.0158,0.0236,0.0269,0.0301,0.0327,0.0247,0.0243,0.0223,0.0143,0.0087,0.0116,0.0124,0.0056,0.0062,-0.0006,-0.0006,-0.0006,-0.0006,-0.0006,0,-0.0319,-0.0269,-0.021,-0.017,-0.0092,-0.0031,0.0057,0.0127,0.0192,0.0251,0.0298,0.0349,0.0303,0.0284,0.0226,0.02,0.0137,0.0133,0.0112,0.0073,0.008,0.0036,0.0041,-0.0007,-0.0007,-0.0007,-0.0006,0,-0.0306,-0.027,-0.0204,-0.0117,-0.0083,-0.0024,0.0077,0.0129,0.0203,0.027,0.0296,0.0367,0.0391,0.0353,0.0254,0.0212,0.0142,0.0134,0.0146,0.0129,0.0165,0.0172,0.0131,0.0134,0.0136,0.0138,0.0139,0,-0.0287,-0.0256,-0.0178,-0.0145,-0.0095,-0.0009,0.005,0.0141,0.0195,0.0303,0.0328,0.039,0.0487,0.0434,0.0338,0.0264,0.0235,0.0176,0.0124,0.0191,0.0175,0.0178,0.0182,0.0044,0.0045,0.0045,0.0046,0,-0.0254,-0.0237,-0.0195,-0.0135,-0.0069,-0.0001,0.0091,0.0138,0.0247,0.0333,0.0464,0.0547,0.0536,0.0496,0.0423,0.0346,0.0191,0.019,0.0201,0.0051,0.0115,0.0098,0.0103,0.0051,0.005,0.005,0.005,0.005,-0.0235,-0.0216,-0.0178,-0.0117,-0.0058,0.0025,0.0107,0.0205,0.0331,0.0491,0.0551,0.0677,0.0585,0.0516,0.0418,0.0282,0.0268,0.0179,0.0173,0.0167,0.0198,0.0266,0.0238,0.0238,0.0239,0.0239,0.024,0,-0.0208,-0.0197,-0.0157,-0.0081,-0.0017,0.0017,0.0143,0.0249,0.0431,0.0549,0.0707,0.0655,0.0629,0.0526,0.0312,0.0219,0.0154,0.02,0.0103,0.0099,0.0095,0.0118,0.0139,0.0139,0.0139,0.0139,0,0,-0.0193,-0.0169,-0.0155,-0.0051,0.0004,0.012,0.0207,0.0374,0.0491,0.0657,0.0719,0.0806,0.0654,0.0492,0.0345,0.0236,0.0194,0.022,0.0301,0.0195,0.0193,0.0075,0.0107,0,0,0,0,0]}],[{"header":{"parameterUnit":"m.s-1","parameterCategory":2,"la1":30.2991,"la2":30.254,"lo1":-89.0895,"lo2":-89.0444,"dy":0.0017,"dx":0.0017,"nx":28,"ny":28,"refTime":"2024-07-01T03:00:00:Z","depth":"4","parameterNumber":2,"parameterNumberName":"U-component_of_CURRENTS"},"data":[0,0,0,0,0,0,0,0,0,0,0,0,0,0,0,0,0,0,0,0,0,0,0,0,0,0,0,0,0,0,0,0,0,0,0,0,0,0,0,0,0,0,0,0,0,0,0,0,0,0,0,0,0,0,0,0,0,0,-0.023,-0.023,0,-0.015,-0.0148,-0.0147,-0.0037,-0.0036,-0.0034,-0.0033,0.0009,0.0008,0.0008,0,0,0,0,0,0,0,0,0,0,0,0,0,-0.0168,-0.017,-0.023,-0.023,-0.0229,-0.015,-0.0148,-0.0147,-0.0037,-0.0036,-0.0034,-0.0033,0.0009,0.0008,0.0008,0,0,0,0,0,0,0,0,0,0,0,0,0,-0.0147,-0.0171,-0.023,-0.0169,-0.0163,-0.015,-0.0148,-0.0146,-0.0038,-0.0036,-0.0034,-0.0032,0.0009,0.0009,0.0008,-0.0033,0,0,0.0008,0.0008,0,0,0,0,0,0,0,0,-0.0149,-0.0149,-0.0179,-0.0174,-0.0167,-0.0106,-0.0111,-0.0112,-0.0038,-0.0079,-0.0033,-0.0031,-0.0039,-0.0035,-0.0015,-0.0031,-0.0029,0.0008,0.0008,0.0008,0.0008,0,0,0,0,0,0,0,-0.015,-0.0151,-0.0193,-0.0179,-0.0171,-0.0105,-0.01,-0.0109,-0.0068,-0.0076,-0.0069,-0.007,-0.0035,-0.0015,-0.0014,-0.0028,0.0008,0.0008,0.0007,0.0007,0.0083,0.0085,0,0,0,0,0,0,-0.0181,-0.0154,-0.0195,-0.0191,-0.0159,-0.0108,-0.0103,-0.0123,-0.0066,-0.0057,-0.0071,-0.0065,-0.0016,-0.0014,-0.0012,0.0143,0.0008,0.0007,0.0007,0.0081,0.0084,0.0086,0,0,0,0,0,0,-0.018,-0.0186,-0.0199,-0.0173,-0.017,-0.0113,-0.0136,-0.0123,-0.0033,-0.0064,-0.0053,0.0012,-0.0014,-0.0012,0.0054,0.0138,0.0007,0.0007,0.0079,0.0082,0.0085,0.0324,0,0,0,0,0,0,-0.0179,-0.0187,-0.0184,-0.0176,-0.0173,-0.0144,-0.0138,-0.0123,-0.0044,-0.0032,0.0009,0.0011,-0.0013,0.0055,0.0054,0.0135,0.0007,0.0076,0.008,0.0084,0.0313,0.0335,0.0353,0,0,0,0,0,-0.0177,-0.019,-0.0185,-0.0188,-0.0182,-0.0143,-0.0132,-0.0081,-0.0041,0.0008,0.0048,0.0014,0.0078,0.0057,0.0055,0.0139,0.0074,0.0079,0.0084,0.0304,0.0331,0.0353,0,0,0,0,0,0,-0.017,-0.0181,-0.0174,-0.0192,-0.0149,-0.0125,-0.0082,-0.0041,0.0032,0.0064,0.005,0.0055,0.0141,0.0093,0.007,0.0164,0.0066,0.0071,0.0234,0.0258,0.0278,0.0288,0.0007,0,0,0,0,0,-0.0173,-0.0172,-0.0165,-0.0167,-0.0145,-0.0096,-0.0063,-0.0017,0.0028,0.0069,0.0111,0.0132,0.0144,0.017,0.0172,0.0227,0.0135,0.0271,0.0291,0.0308,0.0312,0.0256,0.0272,0.0102,0.0102,0.0102,0,0,-0.0175,-0.0177,-0.0177,-0.0161,-0.0124,-0.0065,-0.0066,0.001,0.009,0.0053,0.0203,0.0212,0.0173,0.025,0.0281,0.0234,0.0305,0.0315,0.0331,0.0324,0.0263,0.028,0.0294,0.0105,0.0104,0.0104,0,0,-0.0164,-0.0169,-0.015,-0.0102,-0.0037,-0.0003,0.0036,0.012,0.0194,0.0311,0.0303,0.0364,0.0416,0.0407,0.0398,0.0515,0.0413,0.0528,0.065,0.0599,0.0613,0.0624,0.0518,0.0517,0.0541,0.0541,0.0542,0,-0.0154,-0.0141,-0.013,-0.0077,-0.002,0.0037,0.0114,0.0182,0.0296,0.0356,0.0391,0.0488,0.048,0.0524,0.0592,0.0565,0.0503,0.0575,0.0628,0.0636,0.0643,0.0532,0.0528,0.0553,0.0552,0.0551,0.055,0,-0.012,-0.0081,-0.0054,0.0027,0.0095,0.0173,0.0258,0.0368,0.0476,0.0538,0.0665,0.0676,0.0724,0.0743,0.0723,0.078,0.0707,0.0662,0.0575,0.0676,0.055,0.0543,0.0571,0.0566,0.0563,0.056,0,0,-0.0154,-0.0054,-0.0031,0.0036,0.0171,0.0228,0.0372,0.0495,0.058,0.0728,0.0821,0.0915,0.0944,0.0932,0.0915,0.0901,0.0917,0.0843,0.0835,0.0751,0.078,0.0747,0.0733,0.0905,0.0906,0.0906,0.0668,0,-0.011,-0.0015,0.0045,0.0192,0.0261,0.0376,0.0489,0.0617,0.0727,0.083,0.0882,0.096,0.1002,0.104,0.1052,0.0934,0.0911,0.0983,0.0681,0.067,0.0642,0.0729,0.0907,0.0662,0.0659,0.0658,0.0657,0,-0.0079,-0.0012,0.0117,0.0272,0.0317,0.0431,0.0621,0.0725,0.0852,0.0934,0.1042,0.1067,0.1112,0.1108,0.1017,0.1073,0.0969,0.0872,0.0859,0.0739,0.0625,0.0537,0.064,0.0642,0.0643,0.0644,0.0645,0,-0.0102,0.0048,0.0156,0.0219,0.0394,0.0511,0.0625,0.078,0.0838,0.0994,0.1019,0.1112,0.1089,0.1055,0.0908,0.0987,0.0709,0.0762,0.0616,0.0608,0.0597,0.0588,0.0674,0.0674,0.0675,0.0675,0.0676,0,-0.0079,0.0007,0.0166,0.0236,0.0374,0.0523,0.0662,0.0786,0.089,0.0906,0.1067,0.1029,0.108,0.0939,0.0874,0.069,0.0674,0.0646,0.0567,0.0699,0.0704,0.0589,0.0583,0.0666,0.0668,0.067,0.0672,0,-0.0123,-0.0024,0.009,0.0292,0.0366,0.0471,0.0644,0.0694,0.0836,0.0842,0.0886,0.0925,0.0828,0.0765,0.0597,0.0579,0.0428,0.0333,0.0403,0.0327,0.0386,0.0395,0.0272,0.027,0.0267,0.0266,0.0264,0,-0.0138,-0.0079,0.0097,0.0149,0.0258,0.0414,0.0482,0.0658,0.0677,0.0725,0.0672,0.0636,0.0649,0.038,0.0355,0.0237,0.0225,0.0144,0.0421,0.0421,0.0355,0.0367,0.0378,0.026,0.026,0.0259,0.0259,0,-0.0176,-0.0116,-0.0045,0.0058,0.0158,0.0231,0.0351,0.0363,0.0497,0.0567,0.0523,0.0525,0.0371,0.0343,0.0204,0.0117,0.0246,0.0124,0.0134,0.0394,0.0405,0.0345,0.0358,0.0251,0.0252,0.0253,0.0253,0,-0.0228,-0.0213,-0.013,-0.0029,0.0036,0.0082,0.0161,0.0218,0.0279,0.0393,0.0309,0.0303,0.0309,0.0256,0.0095,0.0068,0.0171,0.0223,0.023,0.0239,0.0352,0.0369,0.0143,0,0,0,0,0,-0.0259,-0.0247,-0.0211,-0.0115,-0.0078,-0.0011,0.0071,0.0137,0.024,0.021,0.0315,0.0216,0.0186,0.014,0.0122,0.0072,0.0123,0.0048,0.0176,0.0208,0.0217,0.0361,0,0,0,0,0,0,-0.0281,-0.0272,-0.0244,-0.021,-0.0163,-0.0118,-0.0057,0.0004,0.0033,0.0139,0.0112,0.0206,0.0144,0.0188,0.0111,0.0103,0.0186,0.0053,0.0053,0.0203,0.0211,0.0218,0.037,0,0,0,0,0]},{"header":{"parameterUnit":"m.s-1","parameterCategory":2,"la1":30.2991,"la2":30.254,"lo1":-89.0895,"lo2":-89.0444,"dy":0.0017,"dx":0.0017,"nx":28,"ny":28,"refTime":"2024-07-01T03:00:00:Z","depth":"4","parameterNumber":3,"parameterNumberName":"V-component_of_CURRENTS"},"data":[0,0,0,0,0,0,0,0,0,0,0,0,0,0,0,0,0,0,0,0,0,0,0,0,0,0,0,0,0,0,0,0,0,0,0,0,0,0,0,0,0,0,0,0,0,0,0,0,0,0,0,0,0,0,0,0,0,0,0.0499,0.05,0,0.0583,0.0584,0.0585,0.0638,0.0638,0.0638,0.0639,0.0465,0.0461,0.0456,0,0,0,0,0,0,0,0,0,0,0,0,0,0.0402,0.0403,0.0499,0.05,0.0501,0.0583,0.0584,0.0585,0.0638,0.0638,0.0638,0.0639,0.0467,0.0461,0.0455,0,0,0,0,0,0,0,0,0,0,0,0,0,0.0461,0.0404,0.0499,0.0537,0.0541,0.0583,0.0584,0.0586,0.0638,0.0638,0.0638,0.0639,0.0469,0.0462,0.0455,0.0401,0,0,0.0432,0.0429,0,0,0,0,0,0,0,0,0.0458,0.0465,0.053,0.0534,0.0539,0.06,0.0487,0.0511,0.0638,0.0601,0.0639,0.0639,0.0486,0.0477,0.0496,0.0393,0.0386,0.0432,0.0427,0.0424,0.0422,0,0,0,0,0,0,0,0.0453,0.0461,0.0533,0.0531,0.0537,0.0556,0.0565,0.0493,0.0536,0.0605,0.0608,0.0617,0.0487,0.0504,0.0492,0.0383,0.0432,0.0425,0.0421,0.0418,0.0186,0.0185,0,0,0,0,0,0,0.0441,0.0457,0.053,0.0535,0.0498,0.0557,0.0567,0.058,0.0542,0.0539,0.0617,0.0619,0.0516,0.05,0.0485,0.0401,0.0424,0.0417,0.0413,0.0188,0.0186,0.0184,0,0,0,0,0,0,0.0439,0.0447,0.0527,0.0498,0.0509,0.0558,0.0573,0.0582,0.0624,0.0554,0.0546,0.0652,0.0516,0.0496,0.0406,0.0395,0.0414,0.0407,0.019,0.0187,0.0185,0.0243,0,0,0,0,0,0,0.0436,0.0446,0.0477,0.0497,0.051,0.0567,0.0573,0.0583,0.0627,0.0632,0.058,0.0565,0.0514,0.0417,0.0398,0.0385,0.0402,0.0192,0.0189,0.0186,0.0243,0.0243,0.0242,0,0,0,0,0,0.0432,0.046,0.0478,0.0488,0.0543,0.0568,0.0577,0.0613,0.0628,0.0652,0.0587,0.0568,0.0383,0.0409,0.0388,0.0373,0.0194,0.019,0.0186,0.0244,0.0243,0.0242,0,0,0,0,0,0,0.0444,0.0468,0.0488,0.0527,0.0555,0.0577,0.0615,0.0628,0.0608,0.0606,0.0538,0.0515,0.0432,0.0386,0.0417,0.0293,0.0288,0.0279,0.0339,0.0337,0.0337,0.039,0.0396,0,0,0,0,0,0.0458,0.0485,0.0508,0.0546,0.0563,0.0594,0.0619,0.0634,0.0612,0.0612,0.0552,0.0478,0.0397,0.0358,0.028,0.0211,0.0194,0.0187,0.0186,0.0186,0.0212,0.0143,0.014,0.0171,0.0171,0.0171,0,0,0.0478,0.0494,0.0515,0.0551,0.0582,0.0599,0.0612,0.065,0.065,0.0582,0.0546,0.0469,0.0375,0.0295,0.0255,0.0259,0.0171,0.0181,0.0183,0.0209,0.0139,0.0136,0.0134,0.0168,0.0169,0.0169,0,0,0.0503,0.0544,0.0566,0.059,0.0629,0.0632,0.0645,0.0655,0.0657,0.0604,0.0544,0.0463,0.0352,0.0282,0.0233,0.0179,0.0165,0.0155,0.0202,0.0133,0.0131,0.013,0.0133,0.013,0.0161,0.0161,0.0161,0,0.0531,0.056,0.058,0.0604,0.0633,0.0644,0.0671,0.0664,0.0632,0.0615,0.0593,0.0428,0.0347,0.0253,0.0237,0.0182,0.0169,0.0218,0.0137,0.0135,0.0132,0.0135,0.0132,0.0164,0.0163,0.0163,0.0163,0,0.056,0.0597,0.0616,0.0642,0.0668,0.0699,0.0689,0.0685,0.0668,0.0641,0.0555,0.044,0.0357,0.0304,0.0255,0.019,0.0199,0.0144,0.0154,0.0133,0.0137,0.0133,0.0167,0.0166,0.0165,0.0165,0,0,0.0595,0.0628,0.0653,0.0673,0.0698,0.0723,0.0712,0.0706,0.0704,0.0633,0.0602,0.0463,0.0428,0.037,0.0291,0.023,0.0196,0.0197,0.0192,0.023,0.0107,0.0095,0.009,0.0131,0.013,0.0129,0.013,0,0.0623,0.0675,0.0686,0.0737,0.0751,0.0766,0.0759,0.0749,0.0712,0.0666,0.0565,0.0498,0.0445,0.0411,0.0339,0.0203,0.0184,0.0206,0.0097,0.0095,0.0109,0.0083,0.0125,0.0127,0.0126,0.0125,0.0124,0,0.0653,0.0676,0.0742,0.0773,0.0792,0.0827,0.0849,0.0841,0.0775,0.0743,0.0674,0.0594,0.049,0.0447,0.0282,0.0301,0.0242,0.0154,0.015,0.0122,0.0074,0.0138,0.0117,0.0117,0.0118,0.0118,0.0119,0,0.0669,0.0722,0.0783,0.0804,0.0831,0.0878,0.09,0.0874,0.0861,0.0808,0.0768,0.0655,0.0566,0.0465,0.0309,0.0299,0.0134,0.0085,0.0042,0.0043,0.0034,0.0035,0.0022,0.0022,0.0022,0.0022,0.0022,0,0.0671,0.073,0.0809,0.0848,0.0907,0.0927,0.0976,0.0973,0.094,0.0862,0.0826,0.0692,0.0561,0.0436,0.0336,0.0178,0.0165,0.0067,0.003,0.006,0.0064,0.0033,0.0035,0.0022,0.0022,0.0022,0.0022,0,0.066,0.0725,0.0789,0.0875,0.0918,0.0964,0.1036,0.1026,0.1022,0.0913,0.0898,0.0723,0.0528,0.0444,0.024,0.0191,0.006,0.0033,0.0135,0.01,0.0026,0.003,-0.0019,-0.002,-0.0021,-0.0021,-0.0022,0,0.0646,0.0683,0.083,0.0876,0.0931,0.1008,0.1036,0.1066,0.1006,0.0852,0.0742,0.0598,0.0459,0.0222,0.0112,0.003,0.0005,0.0031,-0.0013,0.0047,0.0016,0.002,0.0025,-0.0023,-0.0023,-0.0023,-0.0023,0,0.0586,0.0683,0.0732,0.0851,0.0923,0.0955,0.0976,0.0936,0.0866,0.0879,0.0605,0.0488,0.0271,0.0113,0.0116,0.0012,0.0051,0.0024,0.0024,-0.0018,0.0043,0.0013,0.0018,-0.0025,-0.0025,-0.0025,-0.0024,0,0.0548,0.0567,0.068,0.0763,0.0866,0.0853,0.0876,0.0783,0.075,0.0598,0.0459,0.0287,0.0195,0.0094,0.0015,0.0007,-0.003,0.0,0.0,0.0002,0.0,0.008,-0.0001,0,0,0,0,0,0.0479,0.0499,0.0575,0.0644,0.0758,0.0818,0.0799,0.0782,0.0705,0.0524,0.0518,0.0313,0.016,0.0045,0.0027,-0.0021,-0.0027,-0.004,0.001,-0.0036,-0.0034,-0.0043,0,0,0,0,0,0,0.0417,0.0486,0.0525,0.056,0.0609,0.0667,0.0664,0.0596,0.0493,0.0432,0.0339,0.0344,0.019,0.0186,0.0035,0.002,0.0057,-0.0093,-0.0093,-0.0038,-0.0035,-0.0034,-0.0042,0,0,0,0,0]}]]